Flag for U.S.A. Weather past 2 weeks in Newport News, Virginia, U.S.A.

Now
50 °F

Mostly cloudy.


Feels Like: 48 °F
Forecast: 46 / 58 °F
Wind: 6 mph from Northeast

Location: Newport News / Williamsburg International Airport

Current Time: Apr 26, 2015 at 5:08:20 AM

Latest Report: Apr 26, 2015 at 3:54 AM


Visibility: 10 mi

Pressure: 29.64 "Hg

Humidity: 83%

Dew point: 45 °F

Location of Newport NewsLocation

Historic Weather in Newport News — Graph

°F

Newport News temperature yesterday

Maximum temperature yesterday: 55 °F (at 8:54 AM)
Minimum temperature yesterday: 43 °F (at 2:54 AM)
Average temperature yesterday: 49 °F

Past Weeks' High & Low Weather Summary

 TemperatureHumidityPressure
High82 °F (Apr 20, 2:54 PM)90% (Apr 18, 4:03 AM)30.40 "Hg (Apr 18, 4:03 AM)
Low42 °F (Apr 24, 5:54 AM)19% (Apr 24, 4:54 PM)29.61 "Hg (Apr 20, 5:54 PM)
Average63 °F62%30.01 "Hg
* Reported Apr 11 3:54 AM — Apr 26 3:54 AM, Newport News, Weather by CustomWeather, © 2015

Note: Actual official high and low records may vary slightly from our data, if they occured in-between our weather recording intervals... More about our weather records

Advertising

Newport News weather history for previous 24 hours

 ConditionsComfort  
Time TempWeatherWind HumidityBarometerVisibility
3:54 AM
Sun, Apr 26
50 °FMostly cloudy.6 mph83%29.64 "Hg10 mi
2:54 AM50 °FMostly cloudy.6 mph83%29.64 "Hg7 mi
1:54 AM50 °FOvercast.7 mph83%29.66 "Hg10 mi
12:54 AM50 °FMostly cloudy.5 mph86%29.68 "Hg10 mi
11:54 PM
Sat, Apr 25
50 °FLight rain. Mostly cloudy.6 mph83%29.69 "Hg5 mi
11:04 PM50 °FLight rain. Mostly cloudy.8 mph83%29.68 "Hg5 mi
9:54 PM49 °FLight rain. Mostly cloudy.8 mph84%29.69 "Hg4 mi
9:04 PM49 °FLight rain. Overcast.8 mph84%29.70 "Hg2 mi
8:54 PM48 °FLight rain. Fog.8 mph86%29.71 "Hg6 mi
7:54 PM48 °FLight rain. Low clouds.10 mph83%29.75 "Hg4 mi
6:54 PM48 °FRain. Fog.9 mph86%29.77 "Hg2 mi
6:03 PM49 °FLight rain. Mostly cloudy.9 mph84%29.78 "Hg2 mi
4:54 PM50 °FRain. Mostly cloudy.8 mph83%29.79 "Hg3 mi
3:54 PM51 °FLight rain. Mostly cloudy.6 mph83%29.82 "Hg5 mi
2:54 PM52 °FLight rain. Mostly cloudy.5 mph75%29.86 "Hg6 mi
1:54 PM53 °FLight rain. Overcast.7 mph69%29.89 "Hg9 mi
12:54 PM54 °FLight rain. Overcast.7 mph67%29.88 "Hg10 mi
11:54 AM54 °FLight rain. Mostly cloudy.6 mph72%29.93 "Hg10 mi
10:54 AM54 °FLight rain. Mostly cloudy.5 mph69%29.95 "Hg9 mi
9:54 AM55 °FLight rain. Overcast.3 mph57%29.98 "Hg10 mi
8:54 AM55 °FOvercast.6 mph55%29.94 "Hg10 mi
7:54 AM52 °FOvercast.No wind77%29.94 "Hg10 mi
6:54 AM44 °FPassing clouds.No wind82%29.95 "Hg9 mi
5:54 AM44 °FClear.No wind82%29.94 "Hg10 mi
Weather by CustomWeather, © 2015

See weather overviewHow to use our weather pages